Location: Degersen
(52.2871°N, 9.5716°E)
Time: 00:17:53
(UTC+00:00)

Cosmos 304 Rocket - Pass Details

Date: 20 January 2026
Orbit: 669 x 676 km, 74.0° (Epoch: 17 February)

Event Time Altitude Azimuth Distance (km) Brightness Sun altitude
Rises 06:35:13 0° 222° (SW) 3,021 6.9 -6.7°
Reaches altitude 10° 06:37:35 10° 229° (SW) 2,110 6.1 -6.4°
Maximum altitude 06:42:09 46° 302° (WNW) 914 4.0 -5.8°
Drops below altitude 10° 06:46:45 10° 16° (NNE) 2,123 6.2 -5.1°
Sets 06:49:09 0° 23° (NNE) 3,041 7.1 -4.8°
